Location: *
(45.9500°N, 9.0833°E)
Time: 21:12:09
(UTC+00:00)

Tiros 1 - Pass Details

Date: 21 June 2021
Orbit: 630 x 664 km, 48.4° (Epoch: 05 August)

Event Time Altitude Azimuth Distance (km) Brightness Sun altitude
Rises 08:15:10 0° 208° (SSW) 2,904 10.4 45.7°
Reaches altitude 10° 08:17:47 10° 195° (SSW) 2,003 9.8 46.2°
Maximum altitude 08:21:32 25° 141° (SE) 1,282 9.8 46.8°
Drops below altitude 10° 08:25:20 10° 86° (E) 2,025 10.6 47.4°
Sets 08:27:59 0° 73° (ENE) 2,943 11.1 47.9°
